GSAT0213 (GALILEO 17)

Last updated on Oct. 30, 2020, 5:56 a.m. UTC

1 41861U 16069C   20302.81631729  .00000058  00000-0  00000-0 0  9999
2 41861  54.6705 158.1419 0001418 281.8931  78.1974  1.70473351 24580
UTC
Height (km)
Latitude
Longitude
Inclination
Orbital Period
UTC large
Height (km)
Speed (km/s)
/
Latitude / Longitude
Inclination (degrees)
Orbital Period (minutes)
Azimuth
Elevation
Range (km)
Doppler Factor
iOS Compass Heading
iOS Angle

Next 30 passes for location: Hong Kong

Rise time Rise Azimuth (degrees) Set time Set Azimuth (degrees) Duration Max altitude (degrees)

No matching passes for this satellites